QFA2LX YMML-YSSY

Flight info

Callsign QFA2LX
Flight time 1h 0m
Altitude 35000
Route ML H129 DOSEL Y59 RIVET
Aircraft A320/M-SDE3FGHIRWY/LB1

Departure

Time 2026-05-04 11:33
Airport Melbourne Airport (YMML)

Arrival

Time 2026-05-04 12:33
Airport Sydney Kingsford Smith International Airport (YSSY)
Time Latitude Longitude Altitude Speed Heading
2026-05-04 10:58 -37.66718 144.84891 336 ft 0 kts 81°
2026-05-04 11:13 -37.66720 144.84877 325 ft 4 kts 73°
2026-05-04 11:13 -37.66732 144.84848 336 ft 4 kts 39°
2026-05-04 11:13 -37.66754 144.84835 348 ft 4 kts 356°
2026-05-04 11:14 -37.66762 144.84836 350 ft 0 kts 349°
2026-05-04 11:19 -37.66662 144.84802 337 ft 12 kts 342°
2026-05-04 11:19 -37.66639 144.84710 349 ft 11 kts 262°
2026-05-04 11:19 -37.66650 144.84634 351 ft 6 kts 260°
2026-05-04 11:19 -37.66654 144.84599 349 ft 2 kts 261°
2026-05-04 11:20 -37.66664 144.84509 358 ft 18 kts 263°
2026-05-04 11:20 -37.66679 144.84370 370 ft 14 kts 261°
2026-05-04 11:20 -37.66692 144.84266 372 ft 10 kts 261°
2026-05-04 11:20 -37.66716 144.84200 374 ft 10 kts 221°
2026-05-04 11:22 -37.67609 144.84134 358 ft 28 kts 171°
2026-05-04 11:22 -37.67773 144.84168 357 ft 17 kts 172°
2026-05-04 11:23 -37.67816 144.84175 352 ft 2 kts 172°
2026-05-04 11:23 -37.67824 144.84177 354 ft 0 kts 172°
2026-05-04 11:24 -37.67873 144.84112 351 ft 2 kts 264°
2026-05-04 11:25 -37.67876 144.84073 351 ft 6 kts 264°
2026-05-04 11:25 -37.67883 144.84003 354 ft 10 kts 262°
2026-05-04 11:25 -37.67856 144.83965 353 ft 0 kts 350°
2026-05-04 11:27 -37.66837 144.83915 383 ft 18 kts 22°
2026-05-04 11:28 -37.66788 144.83941 383 ft 0 kts 24°
2026-05-04 11:29 -37.66786 144.83943 383 ft 3 kts 24°
2026-05-04 11:29 -37.66716 144.84069 380 ft 25 kts 87°
2026-05-04 11:31 -37.67866 144.84164 351 ft 20 kts 261°
2026-05-04 11:33 -37.63395 144.83161 2043 ft 145 kts 344°
2026-05-04 11:33 -37.62341 144.82942 2383 ft 164 kts 342°
2026-05-04 11:33 -37.61135 144.82686 2659 ft 187 kts 342°
2026-05-04 11:34 -37.59769 144.82436 2906 ft 212 kts 351°
2026-05-04 11:34 -37.58220 144.82789 3220 ft 244 kts 17°
2026-05-04 11:34 -37.56702 144.83746 4152 ft 239 kts 20°
2026-05-04 11:34 -37.55238 144.84661 5118 ft 234 kts 19°
2026-05-04 11:35 -37.53721 144.85575 5443 ft 257 kts 19°
2026-05-04 11:35 -37.52033 144.86578 5906 ft 277 kts 20°
2026-05-04 11:35 -37.50267 144.87638 6655 ft 284 kts 20°
2026-05-04 11:35 -37.48475 144.88721 7444 ft 287 kts 20°
2026-05-04 11:36 -37.46663 144.89821 8244 ft 291 kts 21°
2026-05-04 11:36 -37.44850 144.90994 9036 ft 297 kts 28°
2026-05-04 11:36 -37.43218 144.92648 9834 ft 306 kts 43°
2026-05-04 11:36 -37.41890 144.94777 10449 ft 317 kts 52°
2026-05-04 11:37 -37.40572 144.97125 10630 ft 340 kts 52°
2026-05-04 11:37 -37.39172 144.99610 11015 ft 353 kts 52°
2026-05-04 11:37 -37.37764 145.02109 11651 ft 357 kts 52°
2026-05-04 11:37 -37.36323 145.04668 12331 ft 360 kts 52°
2026-05-04 11:38 -37.34866 145.07252 13006 ft 364 kts 52°
2026-05-04 11:38 -37.33394 145.09854 13688 ft 367 kts 52°
2026-05-04 11:38 -37.31909 145.12476 14313 ft 371 kts 51°
2026-05-04 11:38 -37.30404 145.15128 15170 ft 374 kts 51°
2026-05-04 11:39 -37.28882 145.17804 16077 ft 379 kts 51°
2026-05-04 11:39 -37.27342 145.20511 16969 ft 384 kts 51°
2026-05-04 11:40 -37.17732 145.37373 21892 ft 409 kts 51°
2026-05-04 11:41 -37.16070 145.40284 22505 ft 412 kts 51°
2026-05-04 11:41 -37.14390 145.43225 23213 ft 417 kts 50°
2026-05-04 11:41 -37.12695 145.46184 23906 ft 420 kts 50°
2026-05-04 11:41 -37.10981 145.49164 24495 ft 424 kts 50°
2026-05-04 11:42 -37.09247 145.52178 25040 ft 428 kts 50°
2026-05-04 11:42 -37.07503 145.55210 25567 ft 431 kts 49°
2026-05-04 11:42 -37.05748 145.58260 26043 ft 434 kts 49°
2026-05-04 11:42 -37.03977 145.61339 26489 ft 437 kts 48°
2026-05-04 11:43 -37.02197 145.64434 26909 ft 440 kts 48°
2026-05-04 11:43 -37.00428 145.67506 27286 ft 443 kts 47°
2026-05-04 11:43 -36.98618 145.70647 27670 ft 446 kts 47°
2026-05-04 11:43 -36.96798 145.73803 28033 ft 449 kts 47°
2026-05-04 11:44 -36.94961 145.76980 28395 ft 452 kts 47°
2026-05-04 11:44 -36.93114 145.80166 28721 ft 454 kts 46°
2026-05-04 11:44 -36.91259 145.83360 29077 ft 456 kts 45°
2026-05-04 11:44 -36.89392 145.86576 29414 ft 458 kts 45°
2026-05-04 11:45 -36.87516 145.89804 29718 ft 461 kts 45°
2026-05-04 11:45 -36.85625 145.93054 30034 ft 463 kts 45°
2026-05-04 11:45 -36.83727 145.96317 30319 ft 466 kts 45°
2026-05-04 11:45 -36.81826 145.99587 30688 ft 465 kts 45°
2026-05-04 11:46 -36.79924 146.02862 31027 ft 466 kts 45°
2026-05-04 11:46 -36.78021 146.06131 31355 ft 466 kts 44°
2026-05-04 11:46 -36.76146 146.09349 31747 ft 465 kts 45°
2026-05-04 11:46 -36.74240 146.12611 32058 ft 466 kts 44°
2026-05-04 11:47 -36.72328 146.15873 32395 ft 467 kts 45°
2026-05-04 11:47 -36.70414 146.19139 32736 ft 467 kts 45°
2026-05-04 11:47 -36.68496 146.22414 33088 ft 468 kts 45°
2026-05-04 11:47 -36.66579 146.25687 33443 ft 468 kts 45°
2026-05-04 11:48 -36.65305 146.27855 33687 ft 468 kts 45°
2026-05-04 11:48 -36.63378 146.31128 34045 ft 469 kts 45°
2026-05-04 11:48 -36.61456 146.34394 34358 ft 467 kts 45°
2026-05-04 11:48 -36.59538 146.37658 34675 ft 467 kts 45°
2026-05-04 11:49 -36.56998 146.41973 35014 ft 468 kts 45°
2026-05-04 11:49 -36.53131 146.48509 35082 ft 470 kts 45°
2026-05-04 11:50 -36.49908 146.53955 35086 ft 471 kts 45°
2026-05-04 11:50 -36.46017 146.60521 35087 ft 473 kts 45°
2026-05-04 11:51 -36.41481 146.68164 35083 ft 473 kts 45°
2026-05-04 11:51 -36.38208 146.73672 35087 ft 473 kts 45°
2026-05-04 11:52 -36.34324 146.80198 35072 ft 473 kts 45°
2026-05-04 11:52 -36.30402 146.86767 35075 ft 474 kts 45°
2026-05-04 11:53 -36.26474 146.93327 35088 ft 474 kts 45°
2026-05-04 11:53 -36.22545 146.99876 35094 ft 474 kts 45°
2026-05-04 11:55 -36.06820 147.25999 35086 ft 474 kts 45°
2026-05-04 11:56 -36.02872 147.32516 35101 ft 474 kts 45°
2026-05-04 11:56 -35.98954 147.38987 35097 ft 473 kts 45°
2026-05-04 11:57 -35.95003 147.45479 35112 ft 472 kts 44°
2026-05-04 11:57 -35.91058 147.51962 35122 ft 472 kts 45°
2026-05-04 11:58 -35.87118 147.58436 35118 ft 472 kts 44°
2026-05-04 11:58 -35.83172 147.64889 35130 ft 471 kts 44°
2026-05-04 11:59 -35.79262 147.71283 35105 ft 470 kts 44°
2026-05-04 11:59 -35.75321 147.77714 35112 ft 470 kts 44°
2026-05-04 12:00 -35.71376 147.84136 35132 ft 470 kts 44°
2026-05-04 12:00 -35.67424 147.90552 35131 ft 470 kts 44°
2026-05-04 12:01 -35.63496 147.96917 35112 ft 471 kts 44°
2026-05-04 12:02 -35.49601 148.19342 35109 ft 472 kts 43°
2026-05-04 12:03 -35.45622 148.25739 35109 ft 471 kts 44°
2026-05-04 12:03 -35.41672 148.32095 35134 ft 472 kts 44°
2026-05-04 12:04 -35.37694 148.38481 35141 ft 471 kts 43°
2026-05-04 12:04 -35.33713 148.44857 35120 ft 471 kts 43°
2026-05-04 12:05 -35.29728 148.51222 35118 ft 471 kts 43°
2026-05-04 12:05 -35.25743 148.57572 35134 ft 470 kts 43°
2026-05-04 12:06 -35.21761 148.63914 35115 ft 470 kts 43°
2026-05-04 12:06 -35.17798 148.70204 35120 ft 470 kts 43°
2026-05-04 12:07 -35.13800 148.76531 35118 ft 470 kts 43°
2026-05-04 12:07 -35.09802 148.82852 35133 ft 470 kts 43°
2026-05-04 12:08 -35.05806 148.89164 35118 ft 470 kts 43°
2026-05-04 12:08 -35.01832 148.95431 35124 ft 470 kts 43°
2026-05-04 12:09 -34.97822 149.01735 35133 ft 470 kts 43°
2026-05-04 12:09 -34.93814 149.08037 35129 ft 470 kts 43°
2026-05-04 12:10 -34.89814 149.14313 35121 ft 469 kts 43°
2026-05-04 12:10 -34.85834 149.20534 35130 ft 468 kts 43°
2026-05-04 12:11 -34.81830 149.26791 35141 ft 468 kts 43°
2026-05-04 12:11 -34.77825 149.33034 35155 ft 468 kts 43°
2026-05-04 12:12 -34.73896 149.39351 35129 ft 475 kts 50°
2026-05-04 12:12 -34.70743 149.46499 35135 ft 480 kts 54°
2026-05-04 12:14 -34.58452 149.74601 32441 ft 453 kts 53°
2026-05-04 12:15 -34.56982 149.77951 31683 ft 447 kts 53°
2026-05-04 12:15 -34.55550 149.81211 30982 ft 440 kts 53°
2026-05-04 12:15 -34.54123 149.84460 30286 ft 433 kts 53°
2026-05-04 12:15 -34.52714 149.87663 29506 ft 427 kts 52°
2026-05-04 12:16 -34.51325 149.90807 28723 ft 420 kts 52°
2026-05-04 12:16 -34.49956 149.93897 28015 ft 413 kts 52°
2026-05-04 12:16 -34.48604 149.96947 27317 ft 408 kts 52°
2026-05-04 12:16 -34.47272 149.99955 26649 ft 403 kts 52°
2026-05-04 12:17 -34.45957 150.02926 25965 ft 398 kts 52°
2026-05-04 12:17 -34.44673 150.05825 25294 ft 393 kts 52°
2026-05-04 12:17 -34.43388 150.08722 24619 ft 388 kts 52°
2026-05-04 12:17 -34.42116 150.11586 23952 ft 385 kts 52°
2026-05-04 12:18 -34.40857 150.14422 23247 ft 379 kts 52°
2026-05-04 12:18 -34.39616 150.17218 22475 ft 375 kts 52°
2026-05-04 12:18 -34.38390 150.19975 21728 ft 369 kts 53°
2026-05-04 12:18 -34.37171 150.22707 21275 ft 367 kts 53°
2026-05-04 12:19 -34.35934 150.25462 20343 ft 379 kts 53°
2026-05-04 12:19 -34.34645 150.28313 19340 ft 394 kts 54°
2026-05-04 12:19 -34.33307 150.31275 18297 ft 408 kts 54°
2026-05-04 12:19 -34.31955 150.34288 17360 ft 417 kts 55°
2026-05-04 12:20 -34.30583 150.37377 16876 ft 423 kts 55°
2026-05-04 12:20 -34.29147 150.40593 16325 ft 440 kts 56°
2026-05-04 12:20 -34.27689 150.43858 15781 ft 442 kts 56°
2026-05-04 12:20 -34.26238 150.47119 15221 ft 439 kts 56°
2026-05-04 12:21 -34.24805 150.50348 14687 ft 433 kts 56°
2026-05-04 12:21 -34.23487 150.53615 14140 ft 433 kts 65°
2026-05-04 12:21 -34.22855 150.57101 13560 ft 418 kts 79°
2026-05-04 12:21 -34.22582 150.60485 13218 ft 389 kts 79°
2026-05-04 12:22 -34.22335 150.63624 12950 ft 364 kts 79°
2026-05-04 12:22 -34.22099 150.66562 12500 ft 348 kts 78°
2026-05-04 12:22 -34.21867 150.69382 12214 ft 329 kts 78°
2026-05-04 12:22 -34.21639 150.72097 11687 ft 322 kts 78°
2026-05-04 12:23 -34.21409 150.74769 11093 ft 318 kts 78°
2026-05-04 12:23 -34.21179 150.77403 10507 ft 313 kts 78°
2026-05-04 12:23 -34.20955 150.80004 9938 ft 310 kts 79°
2026-05-04 12:23 -34.20737 150.82582 9302 ft 307 kts 79°
2026-05-04 12:24 -34.20523 150.85136 8667 ft 305 kts 79°
2026-05-04 12:24 -34.20316 150.87627 8232 ft 296 kts 79°
2026-05-04 12:24 -34.20120 150.90019 8103 ft 277 kts 79°
2026-05-04 12:24 -34.19931 150.92284 7799 ft 267 kts 79°
2026-05-04 12:25 -34.19742 150.94492 7392 ft 263 kts 79°
2026-05-04 12:25 -34.19553 150.96682 6940 ft 262 kts 79°
2026-05-04 12:25 -34.19364 150.98874 6442 ft 262 kts 80°
2026-05-04 12:25 -34.19176 151.01063 5976 ft 262 kts 80°
2026-05-04 12:26 -34.18985 151.03261 5702 ft 261 kts 80°
2026-05-04 12:26 -34.18798 151.05393 5478 ft 257 kts 81°
2026-05-04 12:26 -34.18615 151.07502 5321 ft 249 kts 81°
2026-05-04 12:26 -34.18436 151.09574 5033 ft 249 kts 81°
2026-05-04 12:27 -34.18253 151.11675 4673 ft 253 kts 81°
2026-05-04 12:27 -34.18067 151.13799 4517 ft 255 kts 82°
2026-05-04 12:27 -34.17881 151.15922 4397 ft 253 kts 82°
2026-05-04 12:27 -34.17698 151.18035 4282 ft 253 kts 82°
2026-05-04 12:28 -34.17390 151.20109 4166 ft 248 kts 64°
2026-05-04 12:28 -34.16410 151.21768 3840 ft 241 kts 33°
2026-05-04 12:28 -34.14945 151.22579 3624 ft 228 kts
2026-05-04 12:28 -34.13410 151.22496 3383 ft 218 kts 345°
2026-05-04 12:29 -34.11988 151.22123 3106 ft 205 kts 343°
2026-05-04 12:29 -34.10641 151.21768 2876 ft 191 kts 343°
2026-05-04 12:29 -34.09378 151.21437 2617 ft 179 kts 343°
2026-05-04 12:29 -34.08200 151.21130 2386 ft 167 kts 344°
2026-05-04 12:30 -34.07098 151.20843 2164 ft 158 kts 344°
2026-05-04 12:30 -34.06046 151.20568 1965 ft 151 kts 344°
2026-05-04 12:30 -34.05053 151.20310 1758 ft 141 kts 346°
2026-05-04 12:30 -34.04130 151.20069 1588 ft 133 kts 345°
2026-05-04 12:31 -34.03243 151.19838 1433 ft 129 kts 345°
2026-05-04 12:31 -34.02377 151.19612 1265 ft 130 kts 345°
2026-05-04 12:31 -34.01493 151.19382 1084 ft 130 kts 345°
2026-05-04 12:31 -34.00592 151.19148 904 ft 135 kts 347°
2026-05-04 12:32 -33.99663 151.18906 713 ft 136 kts 346°
2026-05-04 12:32 -33.97793 151.18419 397 ft 138 kts 346°
2026-05-04 12:32 -33.96851 151.18184 216 ft 139 kts 346°
2026-05-04 12:33 -33.95907 151.17931 36 ft 133 kts 345°
2026-05-04 12:33 -33.95142 151.17730 20 ft 91 kts 347°
2026-05-04 12:33 -33.94638 151.17599 24 ft 60 kts 348°
2026-05-04 12:33 -33.94277 151.17506 29 ft 49 kts 348°
2026-05-04 12:34 -33.93974 151.17427 18 ft 27 kts 348°
2026-05-04 12:34 -33.93905 151.17515 19 ft 16 kts 75°
2026-05-04 12:34 -33.93833 151.17594 18 ft 17 kts 349°
2026-05-04 12:34 -33.93711 151.17562 17 ft 19 kts 347°
2026-05-04 12:35 -33.93575 151.17525 17 ft 21 kts 348°
2026-05-04 12:35 -33.93436 151.17501 20 ft 20 kts
2026-05-04 12:35 -33.93300 151.17482 21 ft 20 kts 349°
2026-05-04 12:35 -33.93156 151.17446 22 ft 22 kts 347°
2026-05-04 12:36 -33.93026 151.17410 23 ft 8 kts 347°
2026-05-04 12:36 -33.92985 151.17440 27 ft 7 kts 82°
2026-05-04 12:36 -33.92987 151.17464 28 ft 0 kts 95°
2026-05-04 12:36 -33.92990 151.17492 30 ft 19 kts 98°
2026-05-04 12:37 -33.93037 151.17710 30 ft 19 kts 129°
2026-05-04 12:37 -33.93068 151.17841 31 ft 14 kts 99°
2026-05-04 12:37 -33.93105 151.17866 31 ft 7 kts 178°
2026-05-04 12:37 -33.93132 151.17862 31 ft 2 kts 185°
2026-05-04 12:38 -33.93154 151.17858 31 ft 4 kts 188°
2026-05-04 12:38 -33.93158 151.17857 31 ft 0 kts 188°